#timestamp,LO_Frequency,Hit 
1499713215.0,286057913.2,N
1499713216.0,286057913.2,N
1499713235.8,286057910.8,N
1499713255.6,286057910.9,N
1499713275.5,286057913.3,N
1499713295.3,286057910.9,N
1499713315.1,286057911.0,N
1499713335.9,286057910.5,N
1499713355.7,286057908.7,N
1499713375.6,286057911.3,N
1499713395.4,286057910.7,N
1499713415.2,286057912.9,N
1499713435.1,286057910.8,N
1499713436.0,286057910.8,N
1499713455.8,286057910.8,N
1499713475.7,286057913.1,N
1499713495.5,286057912.5,N
1499713515.3,286057910.2,N
1499713535.2,286057913.2,N
1499713555.0,286057912.8,N
1499713555.9,286057912.8,N
1499713575.7,286057911.0,N
1499713595.6,286057910.5,N
1499713615.4,286057910.4,N
1499713635.3,286057910.3,N
1499713655.1,286057912.3,N
1499713675.8,286057912.4,N
1499713695.7,286057912.5,N
1499713715.5,286057912.2,N
1499713735.4,286057912.6,N
1499713755.2,286057917.6,N
1499713775.0,286057911.1,N
1499713775.9,286057911.1,N
1499713795.8,286057911.4,N
1499713815.6,286057911.6,N
1499713835.5,286057911.2,N
1499713855.3,286057911.0,N
1499713875.1,286057910.9,N
1499713895.9,286057912.9,N
1499713915.7,286057913.2,N
1499713935.6,286057910.6,N
1499713955.4,286057913.0,N
1499713975.2,286057913.2,N
1499713995.1,286057910.3,N
1499713996.0,286057910.3,N
1499714015.8,286057913.1,N
1499714035.7,286057912.4,N
1499714055.5,286057912.7,N
1499714075.3,286057914.5,N
1499714095.2,286057914.7,N
1499714115.0,286057914.1,N
1499714115.9,286057914.1,N
1499714135.8,286057916.4,N
1499714155.6,286057913.4,N
1499714175.4,286057913.5,N
1499714195.3,286057916.1,N
1499714215.1,286057916.4,N
1499714235.8,286057916.1,N
1499714255.7,286057913.5,N
1499714275.5,286057916.5,N
1499714295.4,286057913.5,N
1499714315.2,286057914.3,N
1499714335.0,286057914.3,N
1499714335.9,286057914.3,N
1499714355.8,286057912.4,N
1499714375.6,286057912.1,N
1499714395.5,286057913.1,N
1499714415.3,286057913.0,N
1499714435.1,286057913.2,N
1499714455.9,286057912.4,N
1499714475.7,286057912.5,N
1499714495.6,286057912.8,N
1499714515.4,286057910.2,N
1499714535.2,286057910.3,N
1499714555.1,286057911.1,N
1499714556.0,286057911.1,N
1499714575.8,286057911.4,N
1499714595.6,286057908.7,N
1499714615.5,286057909.1,N
1499714635.3,286057909.0,N
1499714655.2,286057909.8,N
1499714675.9,286057908.8,N
1499714695.7,286057909.4,N
1499714715.6,286057907.0,N
1499714735.4,286057907.6,N
1499714755.2,286057907.5,N
1499714775.1,286057907.6,N
1499714776.0,286057907.6,N
1499714795.8,286057907.7,N
1499714815.7,286057907.3,N
1499714835.5,286057907.7,N
1499714855.3,286057908.4,N
1499714875.2,286057908.3,N
1499714895.0,286057908.0,N
1499714895.9,286057908.0,N
1499714915.8,286057905.7,N
1499714935.6,286057907.9,N
1499714955.4,286057908.0,N
1499714975.3,286057906.0,N
1499714995.1,286057905.8,N
1499715015.9,286057908.2,N
1499715035.7,286057908.2,N
1499715055.5,286057908.5,N
1499715075.4,286057908.5,N
1499715095.2,286057908.0,N
1499715115.0,286057908.0,N
1499715115.9,286057908.0,N
1499715135.8,286057905.4,N
1499715155.6,286057906.6,N
1499715175.5,286057906.7,N
1499715195.3,286057906.0,N
1499715215.1,286057906.0,N
1499715235.9,286057906.4,N
1499715255.7,286057906.6,N
1499715275.5,286057906.3,N
1499715295.4,286057906.5,N
1499715315.2,286057906.2,N
1499715335.1,286057905.7,N
1499715336.0,286057905.7,N
1499715355.8,286057905.7,N
1499715375.6,286057904.4,N
1499715395.5,286057904.1,N
1499715415.3,286057904.1,N
1499715435.2,286057904.8,N
1499715455.9,286057904.8,N
1499715475.7,286057905.2,N
1499715495.6,286057905.2,N
1499715515.4,286057904.7,N
1499715535.2,286057904.7,N
1499715555.1,286057905.2,N
1499715556.0,286057905.2,N
1499715575.8,286057904.8,N
1499715595.7,286057904.9,N
1499715615.5,286057904.7,N
1499715635.3,286057902.3,N
1499715655.2,286057902.8,N
1499715675.0,286057902.5,N
1499715675.9,286057902.5,N
1499715695.7,286057902.3,N
1499715715.6,286057904.9,N
1499715735.4,286057905.3,N
1499715755.3,286057905.3,N
1499715775.1,286057902.3,N
1499715776.0,286057902.3,N
1499715795.8,286057905.3,N
1499715815.7,286057904.7,N
1499715835.5,286057904.6,N
1499715855.3,286057905.1,N
1499715875.2,286057902.6,N
1499715895.0,286057902.3,N
1499715895.9,286057902.3,N
1499715915.8,286057902.3,N
1499715935.6,286057903.2,N
1499715955.4,286057903.5,N
1499715975.3,286057902.8,N
1499715995.1,286057902.9,N
1499716015.9,286057905.3,N
1499716035.7,286057902.6,N
1499716055.5,286057902.7,N
1499716075.4,286057902.7,N
1499716095.2,286057902.4,N
1499716115.0,286057904.7,N
1499716115.9,286057904.7,N
1499716135.8,286057905.1,N
1499716155.6,286057906.8,N
1499716175.5,286057905.6,N
1499716195.3,286057906.0,N
1499716215.1,286057906.1,N
1499716235.9,286057906.0,N
1499716255.7,286057906.8,N
1499716275.6,286057905.7,N
1499716295.4,286057906.9,N
1499716315.2,286057906.2,N
1499716335.1,286057906.9,N
1499716336.0,286057906.9,N
1499716355.8,286057906.6,N
1499716375.6,286057905.6,N
1499716395.5,286057905.8,N
1499716415.3,286057908.0,N
1499716435.2,286057908.1,N
1499716455.9,286057908.4,N
1499716475.7,286057905.8,N
1499716495.6,286057905.5,N
1499716515.4,286057908.1,N
1499716535.2,286057908.1,N
1499716555.1,286057906.2,N
1499716556.0,286057906.2,N
1499716575.8,286057905.9,N
1499716595.7,286057905.8,N
1499716615.5,286057905.6,N
1499716635.3,286057907.3,N
1499716655.2,286057908.5,N
1499716675.0,286057907.4,N
1499716675.9,286057907.4,N
1499716695.8,286057907.6,N
1499716715.6,286057907.8,N
1499716735.4,286057908.1,N
1499716755.3,286057907.8,N
1499716775.1,286057907.7,N
1499716795.8,286057910.0,N
